STARLINK-11139 [DTC] (60402 NORAD) Tracking and Keplerian Element Data

This shows tracking and keplerian element data for the satellite.

Feedback or suggestion? Click here.




ElementValue
Catalog60402
NameSTARLINK-11139 [DTC]
Epoch Orbit1118
Epoch Day286.74614241
Epoch Year2024
RAAN94.5692
Inclination53.1575
Eccentricity0.0001079
Argument of Perigee97.3672
Mean Anonmoly262.7468
Mean Motion15.6975974
Decay Rate3.618E-05
L11 60402U 24141E 24286.74614241 .00003618 00000+0 34636-4 0 9998
L22 60402 53.1575 94.5692 0001079 97.3672 262.7468 15.69759740 11185



Live tracking and technical data element details for STARLINK-11139 [DTC] (NORAD 60402). STARLINK-11139 [DTC] can be tracked NOW for your location showing map with azimuth and elevation plus other details from your city location.







IsCatalogInMostPopularTable: catalog: 60402, numindb: 7
Update: records affected: 1



GetName: 60402 STARLINK-11139 [DTC]

Hit Count: updated at: Wed, 04 Dec 2024 19:30:22 GMT